| time (UTC) | temp F | wind direction | speed MPH | gust MPH | rain 1hr in | rain 24hr in | rain mn in | humidity % | barometer mb |
| 20260504081504 | 51 | 169 | 0.0 | 0.0 | 0.00 | 0.00 | 0.00 | 86 | 1010.1 |
| 20260504050025 | 58 | 157 | 0.0 | 0.0 | 0.00 | 0.00 | 0.00 | 75 | 1010.1 |
| 20260504044516 | 58 | 157 | 0.0 | 1.0 | 0.00 | 0.00 | 0.00 | 72 | 1010.1 |
| 20260504043020 | 59 | 157 | 0.0 | 1.0 | 0.00 | 0.00 | 0.00 | 71 | 1010.1 |
| 20260504041531 | 61 | 157 | 0.0 | 1.0 | 0.00 | 0.00 | 0.00 | 70 | 1010.2 |
| 20260504040022 | 62 | 157 | 0.0 | 0.0 | 0.00 | 0.00 | 0.00 | 68 | 1010.2 |
| 20260504034520 | 63 | 200 | 0.0 | 3.0 | 0.00 | 0.00 | 0.00 | 67 | 1010.0 |
| 20260504033019 | 65 | 270 | 0.0 | 3.0 | 0.00 | 0.00 | 0.00 | 65 | 1010.0 |
| 20260504031520 | 67 | 130 | 0.0 | 2.0 | 0.00 | 0.00 | 0.00 | 64 | 1010.0 |
| 20260504030017 | 70 | 164 | 0.0 | 1.0 | 0.00 | 0.00 | 0.00 | 59 | 1009.9 |
| 20260504024523 | 74 | 183 | 0.0 | 2.0 | 0.00 | 0.00 | 0.00 | 49 | 1009.7 |
| 20260504023025 | 76 | 180 | 0.0 | 7.0 | 0.00 | 0.00 | 0.00 | 44 | 1009.7 |
| 20260504021524 | 77 | 214 | 1.0 | 6.0 | 0.00 | 0.00 | 0.00 | 40 | 1009.8 |
| 20260504020010 | 77 | 232 | 1.0 | 8.0 | 0.00 | 0.00 | 0.00 | 45 | 1010.0 |
| 20260504014509 | 76 | 202 | 1.0 | 10.0 | 0.00 | 0.00 | 0.00 | 42 | 1010.1 |
| 20260504013003 | 76 | 205 | 7.0 | 14.0 | 0.00 | 0.00 | 0.00 | 42 | 1010.1 |
| 20260504011512 | 74 | 244 | 9.0 | 15.0 | 0.00 | 0.00 | 0.00 | 46 | 1010.3 |
| 20260504010014 | 77 | 229 | 6.0 | 11.0 | 0.00 | 0.00 | 0.00 | 44 | 1010.4 |
| 20260504004521 | 75 | 256 | 5.0 | 12.0 | 0.00 | 0.00 | 0.00 | 49 | 1010.6 |
| 20260504003016 | 73 | 237 | 9.0 | 15.0 | 0.00 | 0.00 | 0.00 | 54 | 1010.7 |
| 20260504001512 | 75 | 248 | 10.0 | 15.0 | 0.00 | 0.00 | 0.00 | 50 | 1010.7 |
| 20260504000012 | 75 | 240 | 6.0 | 14.0 | 0.00 | 0.00 | 0.00 | 50 | 1010.9 |
| 20260503234506 | 73 | 223 | 11.0 | 15.0 | 0.00 | 0.00 | 0.00 | 53 | 1011.0 |
| 20260503233014 | 72 | 238 | 12.0 | 17.0 | 0.00 | 0.00 | 0.00 | 56 | 1011.0 |
| 20260503231521 | 73 | 250 | 13.0 | 17.0 | 0.00 | 0.00 | 0.00 | 52 | 1011.2 |
| 20260503230019 | 74 | 263 | 14.0 | 19.0 | 0.00 | 0.00 | 0.00 | 51 | 1011.4 |
| 20260503224521 | 71 | 244 | 13.0 | 15.0 | 0.00 | 0.00 | 0.00 | 56 | 1011.6 |
| 20260503223017 | 70 | 250 | 13.0 | 16.0 | 0.00 | 0.00 | 0.00 | 58 | 1011.8 |
| 20260503221522 | 71 | 252 | 12.0 | 15.0 | 0.00 | 0.00 | 0.00 | 58 | 1011.9 |
| 20260503220012 | 69 | 252 | 11.0 | 14.0 | 0.00 | 0.00 | 0.00 | 61 | 1012.0 |
| 20260503214511 | 71 | 242 | 10.0 | 13.0 | 0.00 | 0.00 | 0.00 | 58 | 1012.2 |
| 20260503213024 | 72 | 243 | 9.0 | 13.0 | 0.00 | 0.00 | 0.00 | 55 | 1012.4 |
| 20260503211524 | 71 | 246 | 9.0 | 14.0 | 0.00 | 0.00 | 0.00 | 56 | 1012.5 |
| 20260503210025 | 70 | 242 | 13.0 | 16.0 | 0.00 | 0.00 | 0.00 | 58 | 1012.5 |
| 20260503204524 | 70 | 242 | 12.0 | 15.0 | 0.00 | 0.00 | 0.00 | 59 | 1012.6 |
| 20260503203020 | 69 | 247 | 9.0 | 15.0 | 0.00 | 0.00 | 0.00 | 60 | 1012.9 |
| 20260503201518 | 68 | 250 | 10.0 | 15.0 | 0.00 | 0.00 | 0.00 | 62 | 1013.1 |
| 20260503200016 | 68 | 243 | 11.0 | 14.0 | 0.00 | 0.00 | 0.00 | 60 | 1013.2 |
| 20260503194525 | 69 | 244 | 9.0 | 12.0 | 0.00 | 0.00 | 0.00 | 57 | 1013.3 |
| 20260503193026 | 68 | 232 | 10.0 | 12.0 | 0.00 | 0.00 | 0.00 | 57 | 1013.3 |
| 20260503191530 | 68 | 229 | 8.0 | 11.0 | 0.00 | 0.00 | 0.00 | 57 | 1013.5 |
| 20260503190028 | 68 | 238 | 8.0 | 9.0 | 0.00 | 0.00 | 0.00 | 60 | 1013.6 |
| 20260503184524 | 68 | 229 | 5.0 | 9.0 | 0.00 | 0.00 | 0.00 | 57 | 1013.9 |
| 20260503183022 | 67 | 226 | 5.0 | 8.0 | 0.00 | 0.00 | 0.00 | 64 | 1014.1 |
| 20260503181518 | 66 | 253 | 4.0 | 8.0 | 0.00 | 0.00 | 0.00 | 67 | 1014.2 |
| 20260503180016 | 65 | 236 | 3.0 | 5.0 | 0.00 | 0.00 | 0.00 | 65 | 1014.4 |
| 20260503174526 | 63 | 243 | 1.0 | 3.0 | 0.00 | 0.00 | 0.00 | 69 | 1014.4 |
| 20260503173029 | 62 | 254 | 0.0 | 3.0 | 0.00 | 0.00 | 0.00 | 73 | 1014.7 |
| 20260503171526 | 60 | 305 | 0.0 | 1.0 | 0.00 | 0.00 | 0.00 | 76 | 1014.8 |